M I D A S
Marine Information and Data Acquisition System
Tripno 2285 of the Zeeleeuw from 2012-04-05 06:32:25 to 2012-04-05 14:15:10
Back to CruiseResearch ActivitiesStationsMapUnderway DataData graphs

EquipmentUnitsComment
TimeDGPSUTC
LatitudeDGPSDM.mWGS84
LongitudeDGPSDM.mWGS84
TemperatureSBE03/SBE38deg celciusITS90
ConductivitySBE21S/mITS90
SalinitySBE21 Practical Salinity Units
ChlorophylAChelsea fluorimeterg/lCalibrated in Aceton
Missing or incorrect values are displayed as -999
Sea surface data collected by the RV Zeeleeuw from 2012-04-05 06:34:02 to 2012-04-05 14:26:06
Time Latitude Longitude Temperature Conductivity Salinity ChlorophylA
2012-04-05 06:35:07 51°13.636 2°56.017 15.3327 0.083219 0.42702 -2.458615
2012-04-05 06:36:07 51°13.635 2°56.013 15.2512 0.083219 0.42702 -2.458615
2012-04-05 06:37:07 51°13.651 2°55.923 15.3649 0.083219 0.427006 -2.458615
2012-04-05 06:38:07 51°13.691 2°55.809 15.3458 0.083219 0.426999 -2.458615
2012-04-05 06:39:07 51°13.753 2°55.706 15.364 0.083219 0.426992 -2.458615
2012-04-05 06:40:07 51°13.83 2°55.629 15.3571 0.083322 0.427538 -2.458615
2012-04-05 06:41:07 51°13.907 2°55.603 15.3716 0.083219 0.426992 -2.458615
2012-04-05 06:42:07 51°13.962 2°55.621 15.3368 0.083219 0.426992 -2.458615
2012-04-05 06:43:07 51°13.982 2°55.634 15.1744 0.083322 0.427531 -2.458615
2012-04-05 06:44:07 51°14.021 2°55.545 15.1909 0.083219 0.426985 -2.458615
2012-04-05 06:45:07 51°14.129 2°55.424 15.2115 0.083219 0.426978 -2.458615
2012-04-05 06:46:07 51°14.256 2°55.302 15.0867 0.083219 0.427033 -2.458615
2012-04-05 06:47:07 51°14.394 2°55.162 15.0636 0.083219 0.426978 -2.458615
2012-04-05 06:48:07 51°14.535 2°55.007 14.9268 0.083322 0.42751 -2.458615
2012-04-05 06:49:06 51°14.674 2°54.801 14.9392 0.083219 0.426937 -2.458615
2012-04-05 06:50:06 51°14.829 2°54.606 14.8605 0.083219 0.426923 -2.458615
2012-04-05 06:51:06 51°14.983 2°54.42 14.8401 0.083219 0.42693 -2.458615
2012-04-05 06:52:06 51°15.135 2°54.228 14.8473 0.083219 0.426902 -2.458615
2012-04-05 06:53:06 51°15.288 2°54.032 14.8435 0.083322 0.427475 -2.458615
2012-04-05 06:54:06 51°15.444 2°53.839 14.8448 0.083219 0.426937 -2.458615
2012-04-05 06:55:06 51°15.608 2°53.67 14.8533 0.083219 0.426923 -2.458615
2012-04-05 06:56:06 51°15.778 2°53.528 14.8394 0.083322 0.427475 -2.458615
2012-04-05 06:57:06 51°15.946 2°53.397 14.874 0.083219 0.426923 -2.458615
2012-04-05 06:58:05 51°16.112 2°53.264 14.8571 0.083219 0.426916 -2.458615
2012-04-05 06:59:05 51°16.286 2°53.144 14.8493 0.083322 0.427475 -2.458615
2012-04-05 07:00:05 51°16.456 2°53.011 14.8685 0.083322 0.427468 -2.458615
2012-04-05 07:01:05 51°16.626 2°52.893 14.8726 0.083322 0.427468 -2.458615
2012-04-05 07:02:05 51°16.795 2°52.77 14.8861 0.083322 0.427455 -2.458615
2012-04-05 07:03:05 51°16.967 2°52.665 14.8929 0.083219 0.426902 -2.458615
2012-04-05 07:04:05 51°17.139 2°52.579 14.8927 0.083219 0.426895 -2.458615
2012-04-05 07:05:05 51°17.318 2°52.532 14.9062 0.083219 0.426902 -2.458615
2012-04-05 07:06:05 51°17.496 2°52.498 14.9208 0.083219 0.426895 -2.458615
2012-04-05 07:07:05 51°17.672 2°52.506 14.915 0.083322 0.427455 -2.458615
2012-04-05 07:08:05 51°17.844 2°52.527 14.9268 0.083219 0.426902 -2.458615
2012-04-05 07:09:04 51°18.014 2°52.56 14.9343 0.083322 0.427468 -2.458615
2012-04-05 07:10:04 51°18.176 2°52.645 14.9467 0.083219 0.426888 -2.458615
2012-04-05 07:11:04 51°18.315 2°52.806 14.9575 0.083219 0.426923 -2.458615
2012-04-05 07:12:04 51°18.428 2°53.01 14.9619 0.083322 0.427468 -2.458615
2012-04-05 07:13:04 51°18.532 2°53.234 14.9702 0.083219 0.426943 -2.458615
2012-04-05 07:14:04 51°18.642 2°53.449 14.9744 0.083322 0.427496 -2.458615
2012-04-05 07:15:04 51°18.757 2°53.652 14.9778 0.083322 0.427392 -2.458615
2012-04-05 07:16:04 51°18.874 2°53.855 14.9834 0.083322 0.427565 -2.458615
2012-04-05 07:17:04 51°18.99 2°54.065 14.9951 0.083322 0.427524 -2.458615
2012-04-05 07:18:04 51°19.114 2°54.264 14.9962 0.083322 0.427517 -2.458615
2012-04-05 07:19:04 51°19.22 2°54.485 15.0029 0.083322 0.427545 -2.458615
2012-04-05 07:20:04 51°19.324 2°54.705 15.0122 0.083322 0.427586 -2.458615
2012-04-05 07:21:04 51°19.432 2°54.92 15.0185 0.083322 0.427614 -2.458615
2012-04-05 07:22:04 51°19.537 2°55.131 15.0185 0.083219 0.427103 -2.458615
2012-04-05 07:23:04 51°19.646 2°55.339 15.0304 0.083322 0.427655 -2.458615
2012-04-05 07:24:04 51°19.754 2°55.548 15.0326 0.083322 0.427697 -2.458615
2012-04-05 07:25:04 51°19.858 2°55.766 15.0452 0.083322 0.42769 -2.458615
2012-04-05 07:26:04 51°19.965 2°55.984 15.0471 0.083322 0.427773 -2.458615
2012-04-05 07:27:03 51°20.074 2°56.196 15.0537 0.083322 0.427822 -2.458615
2012-04-05 07:28:04 51°20.171 2°56.436 15.0567 0.083322 0.427842 -2.458615
2012-04-05 07:29:04 51°20.268 2°56.672 15.0641 0.083322 0.427912 -2.458615
2012-04-05 07:30:04 51°20.368 2°56.91 15.0742 0.083322 0.427912 -2.458615
2012-04-05 07:31:04 51°20.472 2°57.137 15.074 0.083322 0.427926 -2.458615
2012-04-05 07:32:04 51°20.578 2°57.363 15.084 0.083322 0.427981 -2.458615
2012-04-05 07:33:04 51°20.686 2°57.585 15.0846 0.083322 0.428002 -2.458615
2012-04-05 07:34:04 51°20.789 2°57.812 15.0945 0.083219 0.427449 -2.458615
2012-04-05 07:35:04 51°20.883 2°58.044 15.0906 0.083322 0.42812 -2.458615
2012-04-05 07:36:04 51°20.98 2°58.272 15.1052 0.083322 0.428134 -2.458615
2012-04-05 07:37:04 51°21.083 2°58.492 15.1126 0.083219 0.427608 -2.458615
2012-04-05 07:38:04 51°21.188 2°58.697 15.1243 0.083219 0.427657 -2.458615
2012-04-05 07:39:04 51°21.244 2°58.837 15.1263 0.083219 0.427712 -2.458615
2012-04-05 07:40:04 51°21.266 2°58.903 15.1306 0.083219 0.427719 -2.458615
2012-04-05 07:41:04 51°21.287 2°58.931 15.348 0.083219 0.427754 -2.458615
2012-04-05 07:42:04 51°21.317 2°58.988 15.2199 0.083219 0.427816 -2.458615
2012-04-05 07:43:03 51°21.344 2°59.003 15.351 0.083219 0.427893 -2.458615
2012-04-05 07:44:04 51°21.343 2°58.995 15.3192 0.083116 0.427318 -2.458615
2012-04-05 07:45:04 51°21.328 2°58.983 15.353 0.083116 0.427401 -2.458615
2012-04-05 07:46:05 51°21.312 2°58.994 15.2838 0.083219 0.427983 -2.458615
2012-04-05 07:47:05 51°21.369 2°59.052 15.4723 0.083116 0.42745 -2.458615
2012-04-05 07:48:05 51°21.467 2°59.135 15.4606 0.083116 0.427492 -2.458615
2012-04-05 07:49:05 51°21.582 2°59.231 15.4745 0.083116 0.42754 -2.458615
2012-04-05 07:50:05 51°21.694 2°59.328 15.4914 0.083116 0.427561 -2.458615
2012-04-05 07:51:05 51°21.805 2°59.436 15.4994 0.083116 0.427617 -2.458615
2012-04-05 07:52:05 51°21.915 2°59.537 15.5134 0.083116 0.427617 -2.458615
2012-04-05 07:53:05 51°21.995 2°59.59 15.5229 0.083116 0.427707 -2.458615
2012-04-05 07:54:05 51°22.013 2°59.592 15.5179 0.083116 0.427735 -2.458615
2012-04-05 07:55:05 51°22.009 2°59.58 15.5272 0.083116 0.427783 -2.458615
2012-04-05 07:56:05 51°22 2°59.563 15.5018 0.083116 0.427818 -2.458615
2012-04-05 07:57:04 51°22.053 2°59.575 15.5387 0.083013 0.427361 -2.458615
2012-04-05 07:58:04 51°22.18 2°59.534 15.5426 0.083013 0.427382 -2.458615
2012-04-05 07:59:04 51°22.322 2°59.523 15.5558 0.083013 0.427417 -2.458615
2012-04-05 08:00:04 51°22.461 2°59.567 15.569 0.083013 0.427431 -2.458615
2012-04-05 08:01:04 51°22.591 2°59.627 15.5843 0.083013 0.4275 -2.458615
2012-04-05 08:02:04 51°22.663 2°59.643 15.5981 0.083013 0.427584 -2.458615
2012-04-05 08:03:04 51°22.672 2°59.651 15.591 0.083013 0.427625 -2.458615
2012-04-05 08:04:03 51°22.659 2°59.65 15.5845 0.083013 0.427702 -2.458615
2012-04-05 08:05:04 51°22.637 2°59.646 15.5667 0.083013 0.427785 -2.458615
2012-04-05 08:06:03 51°22.62 2°59.762 15.5883 0.083013 0.427827 -2.458615
2012-04-05 08:07:04 51°22.624 2°59.976 15.6006 0.08291 0.42737 -2.458615
2012-04-05 08:08:03 51°22.625 3°0.2 15.6094 0.083013 0.42796 -2.458615
2012-04-05 08:09:04 51°22.629 3°0.435 15.6217 0.083013 0.427939 -2.458615
2012-04-05 08:10:04 51°22.645 3°0.665 15.6379 0.08291 0.427481 -2.458615
2012-04-05 08:11:03 51°22.658 3°0.879 15.6609 0.08291 0.427537 -2.458615
2012-04-05 08:12:04 51°22.67 3°0.979 15.6799 0.08291 0.427641 -2.458615
2012-04-05 08:13:03 51°22.665 3°0.994 15.6614 0.08291 0.42769 -2.458615
2012-04-05 08:14:04 51°22.656 3°0.987 15.6641 0.08291 0.427732 -2.458615
2012-04-05 08:15:03 51°22.675 3°0.973 15.6619 0.082808 0.427211 -2.458615
2012-04-05 08:16:04 51°22.766 3°1.028 15.6841 0.08291 0.42783 -2.458615
2012-04-05 08:17:03 51°22.894 3°1.112 15.7024 0.082808 0.427357 -2.458615
2012-04-05 08:18:04 51°23.032 3°1.222 15.7086 0.082808 0.427371 -2.458615
2012-04-05 08:19:03 51°23.152 3°1.361 15.7217 0.082808 0.427406 -2.458615
2012-04-05 08:20:03 51°23.25 3°1.511 15.7563 0.082808 0.427518 -2.458615
2012-04-05 08:21:04 51°23.304 3°1.586 15.7903 0.082808 0.427518 -2.458615
2012-04-05 08:22:04 51°23.333 3°1.612 15.7645 0.082808 0.427623 -2.458615
2012-04-05 08:23:04 51°23.332 3°1.619 15.798 0.082705 0.427052 -2.458615
2012-04-05 08:24:04 51°23.32 3°1.627 15.8067 0.082705 0.427073 -2.458615
2012-04-05 08:25:03 51°23.307 3°1.678 15.7852 0.082808 0.427679 -2.458615
2012-04-05 08:26:04 51°23.319 3°1.914 15.7635 0.082705 0.427157 -2.458615
2012-04-05 08:27:03 51°23.337 3°2.197 15.7691 0.082808 0.427762 -2.458615
2012-04-05 08:28:04 51°23.342 3°2.505 15.8015 0.082602 0.426712 -2.458615
2012-04-05 08:29:03 51°23.345 3°2.807 15.8065 0.082705 0.427381 -2.458615
2012-04-05 08:30:04 51°23.352 3°3.116 15.7909 0.082705 0.42745 -2.458615
2012-04-05 08:31:04 51°23.353 3°3.413 15.8304 0.082705 0.427457 -2.458615
2012-04-05 08:32:04 51°23.328 3°3.608 15.8397 0.082705 0.427583 -2.458615
2012-04-05 08:33:04 51°23.321 3°3.652 15.8521 0.082602 0.427005 -2.458615
2012-04-05 08:34:03 51°23.307 3°3.664 15.8659 0.082705 0.427569 -2.458615
2012-04-05 08:35:04 51°23.29 3°3.675 15.89 0.082705 0.427737 -2.458615
2012-04-05 08:36:04 51°23.292 3°3.829 15.8603 0.082705 0.427793 -2.458615
2012-04-05 08:37:03 51°23.314 3°4.109 15.8764 0.082602 0.427348 -2.458615
2012-04-05 08:38:04 51°23.303 3°4.424 15.8892 0.082705 0.427989 -2.458615
2012-04-05 08:39:04 51°23.304 3°4.733 15.9012 0.082602 0.427481 -2.458615
2012-04-05 08:40:04 51°23.337 3°5.039 15.9084 0.082602 0.42753 -2.458615
2012-04-05 08:41:04 51°23.357 3°5.324 15.9342 0.082602 0.427579 -2.458615
2012-04-05 08:42:04 51°23.348 3°5.502 15.9564 0.082602 0.427712 -2.458615
2012-04-05 08:43:04 51°23.334 3°5.609 15.9592 0.082602 0.427747 -2.458615
2012-04-05 08:44:04 51°23.315 3°5.624 15.9763 0.082499 0.427231 -2.458615
2012-04-05 08:45:07 51°23.292 3°5.625 15.9742 0.082602 0.427852 -2.458615
2012-04-05 08:46:07 51°23.263 3°5.646 15.9563 0.082499 0.427344 -2.458615
2012-04-05 08:47:07 51°23.258 3°5.745 15.941 0.082499 0.427449 -2.458615
2012-04-05 08:48:07 51°23.297 3°5.913 15.9597 0.082499 0.427477 -2.458615
2012-04-05 08:49:06 51°23.329 3°6.138 15.9812 0.082499 0.427575 -2.458615
2012-04-05 08:50:06 51°23.35 3°6.34 16.0016 0.082499 0.427715 -2.458615
2012-04-05 08:51:06 51°23.344 3°6.379 16.0111 0.082396 0.42722 -2.458615
2012-04-05 08:52:07 51°23.329 3°6.383 16.0232 0.082396 0.427297 -2.458615
2012-04-05 08:53:07 51°23.311 3°6.385 16.0407 0.082396 0.427388 -2.458615
2012-04-05 08:54:07 51°23.306 3°6.38 16.037 0.082396 0.427445 -2.458615
2012-04-05 08:55:07 51°23.343 3°6.44 16.0636 0.082396 0.427543 -2.458615
2012-04-05 08:56:07 51°23.356 3°6.621 16.0732 0.082396 0.427613 -2.458615
2012-04-05 08:57:07 51°23.336 3°6.807 16.0905 0.082396 0.427754 -2.458615
2012-04-05 08:58:06 51°23.326 3°6.879 16.102 0.082396 0.427754 -2.458615
2012-04-05 08:59:07 51°23.309 3°6.886 16.102 0.082396 0.427754 -2.458615
2012-04-05 09:00:07 51°23.292 3°6.888 16.1213 0.082396 0.427895 -2.458615
2012-04-05 09:01:07 51°23.276 3°6.891 16.1207 0.082294 0.427434 -2.458615
2012-04-05 09:02:07 51°23.26 3°6.894 16.1328 0.082294 0.427603 -2.458615
2012-04-05 09:03:06 51°23.234 3°6.911 16.1424 0.082294 0.427673 -2.458615
2012-04-05 09:04:06 51°23.21 3°6.991 16.0948 0.082294 0.427737 -2.458615
2012-04-05 09:05:06 51°23.248 3°7.134 16.1037 0.082294 0.427807 -2.458615
2012-04-05 09:06:06 51°23.309 3°7.352 16.1241 0.082191 0.427395 -2.458615
2012-04-05 09:07:06 51°23.345 3°7.509 16.1428 0.082191 0.427508 -2.458615
2012-04-05 09:08:06 51°23.354 3°7.572 16.1578 0.082191 0.427642 -2.458615
2012-04-05 09:09:07 51°23.342 3°7.58 16.1708 0.082191 0.427705 -2.458615
2012-04-05 09:10:07 51°23.327 3°7.581 16.1834 0.082191 0.42779 -2.458615
2012-04-05 09:11:07 51°23.306 3°7.614 16.1748 0.082191 0.427903 -2.458615
2012-04-05 09:12:07 51°23.299 3°7.782 16.1715 0.082191 0.427953 -2.458615
2012-04-05 09:13:07 51°23.323 3°7.981 16.1882 0.082191 0.427995 -2.458615
2012-04-05 09:14:06 51°23.333 3°8.136 16.2003 0.082088 0.427554 -2.458615
2012-04-05 09:15:06 51°23.329 3°8.186 16.2144 0.082191 0.4282 -2.458615
2012-04-05 09:16:07 51°23.317 3°8.191 16.2213 0.082088 0.427717 -2.458615
2012-04-05 09:17:07 51°23.305 3°8.2 16.2414 0.082088 0.427823 -2.458615
2012-04-05 09:18:07 51°23.266 3°8.238 16.2462 0.082088 0.42788 -2.458615
2012-04-05 09:19:07 51°23.205 3°8.216 16.2402 0.082088 0.427979 -2.458615
2012-04-05 09:20:06 51°23.163 3°8.094 16.2551 0.082088 0.428064 -2.458615
2012-04-05 09:21:06 51°23.102 3°7.932 16.269 0.081985 0.427658 -2.458615
2012-04-05 09:22:06 51°23.031 3°7.769 16.2421 0.082088 0.428255 -2.458615
2012-04-05 09:23:06 51°22.965 3°7.601 16.2696 0.081985 0.42775 -2.458615
2012-04-05 09:24:06 51°22.902 3°7.43 16.2859 0.081985 0.427799 -2.458615
2012-04-05 09:25:06 51°22.832 3°7.265 16.2895 0.081882 0.427386 -2.458615
2012-04-05 09:26:06 51°22.76 3°7.107 16.2932 0.081985 0.428019 -2.458615
2012-04-05 09:27:05 51°22.693 3°6.951 16.3115 0.081882 0.427556 -2.458615
2012-04-05 09:28:05 51°22.626 3°6.792 16.3026 0.081882 0.427641 -2.458615
2012-04-05 09:29:05 51°22.559 3°6.63 16.3159 0.081882 0.42774 -2.458615
2012-04-05 09:30:05 51°22.492 3°6.47 16.32 0.081985 0.428389 -2.458615
2012-04-05 09:31:05 51°22.42 3°6.312 16.3031 0.081882 0.427932 -2.458615
2012-04-05 09:32:05 51°22.352 3°6.15 16.3414 0.081882 0.427925 -2.458615
2012-04-05 09:33:05 51°22.287 3°5.985 16.3351 0.081882 0.427989 -2.458615
2012-04-05 09:34:05 51°22.222 3°5.82 16.3531 0.08178 0.427461 -2.458615
2012-04-05 09:35:05 51°22.155 3°5.659 16.3624 0.08178 0.427532 -2.458615
2012-04-05 09:36:05 51°22.088 3°5.501 16.3725 0.081882 0.428138 -2.458615
2012-04-05 09:37:05 51°22.023 3°5.341 16.3631 0.081882 0.428202 -2.458615
2012-04-05 09:38:05 51°21.956 3°5.182 16.3759 0.081882 0.428231 -2.458615
2012-04-05 09:39:04 51°21.897 3°5.022 16.3813 0.08178 0.427753 -2.458615
2012-04-05 09:40:05 51°21.834 3°4.857 16.4081 0.081882 0.428366 -2.458615
2012-04-05 09:41:04 51°21.769 3°4.703 16.3966 0.08178 0.427874 -2.458615
2012-04-05 09:42:04 51°21.703 3°4.547 16.4101 0.08178 0.428002 -2.458615
2012-04-05 09:43:04 51°21.641 3°4.387 16.4155 0.08178 0.42808 -2.458615
2012-04-05 09:44:04 51°21.576 3°4.229 16.4083 0.08178 0.428237 -2.458615
2012-04-05 09:45:04 51°21.508 3°4.076 16.4152 0.081677 0.427658 -2.458615
2012-04-05 09:46:04 51°21.447 3°3.918 16.4216 0.08178 0.428344 -2.458615
2012-04-05 09:47:04 51°21.397 3°3.757 16.4444 0.081677 0.427765 -2.458615
2012-04-05 09:48:03 51°21.385 3°3.583 16.4561 0.081677 0.427794 -2.458615
2012-04-05 09:49:04 51°21.374 3°3.402 16.4627 0.08178 0.428436 -2.458615
2012-04-05 09:50:03 51°21.359 3°3.228 16.4853 0.081677 0.427993 -2.458615
2012-04-05 09:51:04 51°21.335 3°3.05 16.4803 0.08178 0.428572 -2.458615
2012-04-05 09:52:03 51°21.313 3°2.878 16.5069 0.081677 0.428122 -2.458615
2012-04-05 09:53:04 51°21.291 3°2.7 16.5012 0.081677 0.428143 -2.458615
2012-04-05 09:54:04 51°21.27 3°2.525 16.5104 0.08178 0.428758 -2.458615
2012-04-05 09:55:04 51°21.248 3°2.349 16.5337 0.081677 0.428272 -2.458615
2012-04-05 09:56:04 51°21.227 3°2.175 16.5012 0.081677 0.428293 -2.458615
2012-04-05 09:57:03 51°21.206 3°2.006 16.5213 0.081677 0.428329 -2.458615
2012-04-05 09:58:04 51°21.187 3°1.831 16.5364 0.081677 0.428407 -2.458615
2012-04-05 09:59:03 51°21.171 3°1.702 16.5476 0.081677 0.428457 -2.458615
2012-04-05 10:00:04 51°21.164 3°1.636 16.563 0.081677 0.428493 -2.458615
2012-04-05 10:01:03 51°21.161 3°1.601 16.5774 0.081677 0.428529 -2.458615
2012-04-05 10:02:04 51°21.161 3°1.579 16.5912 0.081677 0.428608 -2.458615
2012-04-05 10:03:03 51°21.162 3°1.567 16.5886 0.081574 0.428064 -2.458615
2012-04-05 10:04:04 51°21.166 3°1.566 16.6104 0.081574 0.428171 -2.458615
2012-04-05 10:05:04 51°21.171 3°1.568 16.6013 0.081677 0.428744 -2.458615
2012-04-05 10:06:03 51°21.176 3°1.571 16.6344 0.081574 0.428207 -2.458615
2012-04-05 10:07:04 51°21.179 3°1.587 16.6209 0.081677 0.428851 -2.458615
2012-04-05 10:08:03 51°21.18 3°1.608 16.6496 0.081574 0.428343 -2.458615
2012-04-05 10:09:04 51°21.178 3°1.632 16.6632 0.081574 0.428386 -2.458615
2012-04-05 10:10:03 51°21.173 3°1.658 16.6701 0.081574 0.428414 -2.458615
2012-04-05 10:11:04 51°21.169 3°1.688 16.666 0.081574 0.428457 -2.458615
2012-04-05 10:12:03 51°21.164 3°1.72 16.6687 0.081574 0.428493 -2.458615
2012-04-05 10:13:04 51°21.158 3°1.754 16.6878 0.081574 0.428543 -2.458615
2012-04-05 10:14:04 51°21.153 3°1.788 16.6933 0.081574 0.4286 -2.458615
2012-04-05 10:15:03 51°21.148 3°1.824 16.6827 0.081574 0.428643 -2.458615
2012-04-05 10:16:04 51°21.144 3°1.862 16.7104 0.081471 0.428142 -2.458615
2012-04-05 10:17:03 51°21.139 3°1.9 16.7182 0.081574 0.428722 -2.458615
2012-04-05 10:18:04 51°21.135 3°1.938 16.713 0.081574 0.428787 -2.458615
2012-04-05 10:19:04 51°21.136 3°1.924 16.701 0.081574 0.428794 -2.458615
2012-04-05 10:20:04 51°21.146 3°1.785 16.7194 0.081574 0.428895 -2.458615
2012-04-05 10:21:04 51°21.126 3°1.573 16.7044 0.081471 0.428342 -2.458615
2012-04-05 10:22:05 51°21.111 3°1.347 16.7085 0.081574 0.428995 -2.458615
2012-04-05 10:23:05 51°21.187 3°1.21 16.7717 0.081471 0.428421 -2.458615
2012-04-05 10:24:04 51°21.244 3°1.102 16.7855 0.081471 0.428479 -2.458615
2012-04-05 10:25:04 51°21.315 3°1.013 16.7982 0.081471 0.428579 -2.458615
2012-04-05 10:26:04 51°21.364 3°0.973 16.8364 0.081574 0.429182 -2.458615
2012-04-05 10:27:04 51°21.374 3°0.996 16.8446 0.081574 0.429304 -2.458615
2012-04-05 10:28:04 51°21.375 3°1.02 16.8654 0.081574 0.429347 -2.458615
2012-04-05 10:29:04 51°21.395 3°1.031 16.8856 0.081471 0.428831 -2.458615
2012-04-05 10:30:04 51°21.442 3°1.094 16.9053 0.081471 0.428888 -2.458615
2012-04-05 10:31:04 51°21.447 3°1.3 16.9395 0.081471 0.428931 -2.458615
2012-04-05 10:32:04 51°21.439 3°1.582 16.9351 0.081574 0.429621 -2.458615
2012-04-05 10:33:03 51°21.423 3°1.875 16.9504 0.081574 0.429701 -2.458615
2012-04-05 10:34:04 51°21.392 3°2.177 16.9799 0.081574 0.429679 -2.458615
2012-04-05 10:35:03 51°21.363 3°2.47 16.9971 0.081574 0.429895 -2.458615
2012-04-05 10:36:04 51°21.35 3°2.664 17.0064 0.081574 0.429859 -2.458615
2012-04-05 10:37:03 51°21.345 3°2.799 17.0012 0.081574 0.429924 -2.458615
2012-04-05 10:38:04 51°21.336 3°2.924 17.009 0.081574 0.430011 -2.458615
2012-04-05 10:39:05 51°21.338 3°2.974 17.0312 0.081574 0.430033 -2.458615
2012-04-05 10:40:07 51°21.344 3°3 17.0369 0.081574 0.430155 -2.458615
2012-04-05 10:41:07 51°21.346 3°3.038 17.0514 0.081574 0.430235 -2.458615
2012-04-05 10:42:07 51°21.351 3°3.156 17.0612 0.081677 0.430804 -2.458615
2012-04-05 10:43:07 51°21.458 3°3.246 17.0513 0.084453 0.446017 -2.458615
2012-04-05 10:44:06 51°21.601 3°3.339 17.0804 0.084453 0.446055 -2.458615
2012-04-05 10:45:07 51°21.75 3°3.439 17.0925 0.084453 0.4461 -2.458615
2012-04-05 10:46:06 51°21.899 3°3.508 17.0927 0.08435 0.445688 -2.458615
2012-04-05 10:47:06 51°21.987 3°3.616 17.1158 0.08435 0.44586 -2.458615
2012-04-05 10:48:07 51°21.998 3°3.665 17.116 0.08435 0.445951 -2.458615
2012-04-05 10:49:07 51°21.99 3°3.701 17.1104 0.08435 0.446003 -2.458615
2012-04-05 10:50:07 51°21.982 3°3.739 17.1403 0.08435 0.446041 -2.458615
2012-04-05 10:51:07 51°21.977 3°3.777 17.1454 0.08435 0.446161 -2.458615
2012-04-05 10:52:07 51°21.988 3°3.758 17.1488 0.084247 0.445628 -2.458615
2012-04-05 10:53:06 51°21.98 3°3.566 8.3883 0.113963 0.620429 -2.458615
2012-04-05 10:54:06 51°21.932 3°3.343 8.27 3.364152 31.242997 -2.458615
2012-04-05 10:55:06 51°21.834 3°3.167 8.2621 3.282397 30.760438 -2.458615
2012-04-05 10:56:06 51°21.68 3°3.222 8.3018 3.277845 30.775837 -2.458615
2012-04-05 10:57:06 51°21.563 3°3.459 8.3333 3.269359 30.684427 -2.458615
2012-04-05 10:58:06 51°21.461 3°3.728 8.3589 3.262737 30.598994 -2.458615
2012-04-05 10:59:06 51°21.387 3°4.025 8.3819 3.254251 30.499855 -2.458615
2012-04-05 11:00:05 51°21.334 3°4.335 8.3575 3.252389 30.478165 -2.458615
2012-04-05 11:01:05 51°21.317 3°4.634 8.3371 3.252492 30.502846 -2.458615
2012-04-05 11:02:05 51°21.34 3°4.799 8.3425 3.252182 30.518533 -2.458615
2012-04-05 11:03:05 51°21.339 3°4.871 8.3473 3.259529 30.593314 -2.458615
2012-04-05 11:04:05 51°21.343 3°4.908 8.3469 3.253631 30.532011 -2.458615
2012-04-05 11:05:05 51°21.344 3°4.946 8.3671 3.253941 30.537603 -2.458615
2012-04-05 11:06:05 51°21.342 3°4.986 8.3856 3.256011 30.543331 -2.458615
2012-04-05 11:07:05 51°21.332 3°5.091 8.3588 3.255493 30.538744 -2.458615
2012-04-05 11:08:05 51°21.344 3°5.318 8.3685 3.252389 30.519107 -2.458615
2012-04-05 11:09:05 51°21.333 3°5.625 8.3813 3.251354 30.500475 -2.458615
2012-04-05 11:10:05 51°21.32 3°5.941 8.3923 3.248664 30.459941 -2.458615
2012-04-05 11:11:04 51°21.308 3°6.254 8.3937 3.247008 30.438037 -2.458615
2012-04-05 11:12:04 51°21.295 3°6.551 8.3978 3.246077 30.42837 -2.458615
2012-04-05 11:13:04 51°21.298 3°6.732 8.3992 3.245145 30.416349 -2.458615
2012-04-05 11:14:04 51°21.312 3°6.849 8.3979 3.247215 30.438614 -2.458615
2012-04-05 11:15:04 51°21.322 3°6.903 8.3974 3.245559 30.42143 -2.458615
2012-04-05 11:16:07 51°21.327 3°6.942 8.4004 3.244214 30.409038 -2.458615
2012-04-05 11:17:07 51°21.33 3°6.981 8.3991 3.244731 30.414408 -2.458615
2012-04-05 11:18:07 51°21.322 3°7.103 8.3974 3.244731 30.410483 -2.458615
2012-04-05 11:19:07 51°21.326 3°7.385 8.3889 3.241524 30.382685 -2.458615
2012-04-05 11:20:06 51°21.32 3°7.689 8.3777 3.239454 30.370615 -2.458615
2012-04-05 11:21:06 51°21.31 3°7.998 8.3823 3.236557 30.347594 -2.458615
2012-04-05 11:22:06 51°21.307 3°8.307 8.3824 3.235108 30.329423 -2.458615
2012-04-05 11:23:06 51°21.311 3°8.595 8.3654 3.234591 30.327969 -2.458615
2012-04-05 11:24:06 51°21.333 3°8.762 8.3593 3.234695 30.343149 -2.458615
2012-04-05 11:25:06 51°21.344 3°8.811 8.3614 3.233453 30.333389 -2.458615
2012-04-05 11:26:07 51°21.356 3°8.834 8.3576 3.232108 30.320986 -2.458615
2012-04-05 11:27:07 51°21.364 3°8.861 8.3603 3.231694 30.319038 -2.458615
2012-04-05 11:28:07 51°21.364 3°8.913 8.3673 3.232418 30.321859 -2.458615
2012-04-05 11:29:06 51°21.389 3°9.024 8.3684 3.231694 30.31512 -2.458615
2012-04-05 11:30:06 51°21.46 3°9.042 8.3674 3.230349 30.297236 -2.458615
2012-04-05 11:31:06 51°21.508 3°8.88 8.3601 3.230556 30.299384 -2.458615
2012-04-05 11:32:06 51°21.562 3°8.612 8.3706 3.233764 30.332694 -2.458615
2012-04-05 11:33:06 51°21.634 3°8.34 8.3695 3.235316 30.341757 -2.458615
2012-04-05 11:34:06 51°21.698 3°8.066 8.3715 3.236764 30.358368 -2.458615
2012-04-05 11:35:06 51°21.771 3°7.798 8.3954 3.239351 30.379739 -2.458615
2012-04-05 11:36:05 51°21.843 3°7.535 8.3943 3.243386 30.405155 -2.458615
2012-04-05 11:37:05 51°21.903 3°7.261 8.3912 3.244525 30.419326 -2.458615
2012-04-05 11:38:05 51°21.944 3°6.983 8.3719 3.248146 30.46086 -2.458615
2012-04-05 11:39:05 51°22.001 3°6.776 8.3481 3.252803 30.526563 -2.458615
2012-04-05 11:40:05 51°22.043 3°6.776 8.3276 3.255804 30.575923 -2.458615
2012-04-05 11:41:07 51°22.022 3°6.813 8.3263 3.23366 30.363004 -2.458615
2012-04-05 11:42:07 51°22.001 3°6.869 8.3372 3.25032 30.534681 -2.458615
2012-04-05 11:43:07 51°22.004 3°6.898 8.341 3.251458 30.540202 -2.458615
2012-04-05 11:44:07 51°22.005 3°6.931 8.3432 3.251251 30.534101 -2.458615
2012-04-05 11:45:06 51°22.032 3°6.937 8.3445 3.251562 30.53654 -2.458615
2012-04-05 11:46:06 51°22.086 3°7.002 8.3356 3.252079 30.537183 -2.458615
2012-04-05 11:47:06 51°22.079 3°7.129 8.3301 3.253838 30.568913 -2.458615
2012-04-05 11:48:06 51°22.001 3°7.318 8.3543 3.251976 30.550325 -2.458615
2012-04-05 11:49:06 51°21.969 3°7.526 8.3807 3.248871 30.499886 -2.458615
2012-04-05 11:50:06 51°22.024 3°7.62 8.388 3.244939 30.439341 -2.458615
2012-04-05 11:51:06 51°22.043 3°7.65 8.3853 3.244421 30.428465 -2.458615
2012-04-05 11:52:07 51°22.052 3°7.677 8.3833 3.248974 30.477326 -2.458615
2012-04-05 11:53:07 51°22.058 3°7.7 8.3846 3.248664 30.474102 -2.458615
2012-04-05 11:54:07 51°22.064 3°7.725 8.3858 3.248457 30.471165 -2.458615
2012-04-05 11:55:07 51°22.067 3°7.753 8.3882 3.248457 30.469591 -2.458615
2012-04-05 11:56:08 51°22.059 3°7.827 8.3894 3.249078 30.472105 -2.458615
2012-04-05 11:57:07 51°22.06 3°7.914 8.3888 3.243697 30.416229 -2.458615
2012-04-05 11:58:07 51°22.046 3°7.928 8.3876 3.244318 30.424247 -2.458615
2012-04-05 11:59:07 51°22.006 3°8.012 8.3939 3.24618 30.444375 -2.458615
2012-04-05 12:00:07 51°22.001 3°8.157 8.3992 3.247629 30.456274 -2.458615
2012-04-05 12:01:07 51°22.013 3°8.21 8.3984 3.248043 30.455067 -2.458615
2012-04-05 12:02:07 51°22.01 3°8.229 8.3978 3.247215 30.448044 -2.458615
2012-04-05 12:03:07 51°22.009 3°8.246 8.4022 3.247215 30.447258 -2.458615
2012-04-05 12:04:07 51°22.009 3°8.322 8.4001 3.247939 30.453993 -2.458615
2012-04-05 12:05:06 51°22.002 3°8.502 8.4035 3.247629 30.451556 -2.458615
2012-04-05 12:06:06 51°21.991 3°8.695 8.4038 3.246698 30.439529 -2.458615
2012-04-05 12:07:06 51°22.01 3°8.807 8.4006 3.243904 30.410526 -2.458615
2012-04-05 12:08:07 51°22.011 3°8.834 8.3993 3.242041 30.394331 -2.458615
2012-04-05 12:09:07 51°22.011 3°8.849 8.4003 3.241317 30.386027 -2.458615
2012-04-05 12:10:06 51°22.013 3°8.871 8.3982 3.241317 30.386027 -2.458615
2012-04-05 12:11:05 51°22.005 3°8.953 8.4004 3.240593 30.380862 -2.458615
2012-04-05 12:12:04 51°21.981 3°9.095 8.3933 3.240282 30.376071 -2.458615
2012-04-05 12:13:03 51°21.956 3°9.251 8.3943 3.23873 30.366233 -2.458615
2012-04-05 12:14:03 51°21.977 3°9.401 8.4051 3.236454 30.338685 -2.458615
2012-04-05 12:15:04 51°22.012 3°9.493 8.4106 3.237488 30.340024 -2.458615
2012-04-05 12:16:07 51°22.017 3°9.516 8.4037 3.237695 30.339039 -2.458615
2012-04-05 12:17:06 51°22.017 3°9.533 8.402 3.236867 30.335148 -2.458615
2012-04-05 12:18:05 51°22.015 3°9.548 8.4073 3.236453 30.33242 -2.458615
2012-04-05 12:19:04 51°22.029 3°9.566 8.4038 3.23635 30.330563 -2.458615
2012-04-05 12:20:04 51°22.06 3°9.501 8.4009 3.235936 30.325486 -2.458615
2012-04-05 12:21:04 51°22.091 3°9.289 8.3936 3.235833 30.32676 -2.458615
2012-04-05 12:22:03 51°22.178 3°9.083 8.4029 3.237178 30.344636 -2.458615
2012-04-05 12:23:03 51°22.266 3°8.87 8.4028 3.241213 30.378679 -2.458615
2012-04-05 12:24:03 51°22.352 3°8.655 8.3972 3.245352 30.420852 -2.458615
2012-04-05 12:25:04 51°22.441 3°8.439 8.3728 3.246905 30.443249 -2.458615
2012-04-05 12:26:04 51°22.509 3°8.23 8.3474 3.252079 30.519823 -2.458615
2012-04-05 12:27:04 51°22.617 3°8.136 8.3235 3.257149 30.59387 -2.458615
2012-04-05 12:28:03 51°22.681 3°8.157 8.3164 3.259219 30.632827 -2.458615
2012-04-05 12:29:07 51°22.687 3°8.179 8.312 3.259219 30.640756 -2.458615
2012-04-05 12:30:06 51°22.685 3°8.189 8.3118 3.258598 30.639843 -2.458615
2012-04-05 12:31:05 51°22.694 3°8.21 8.318 3.257771 30.631222 -2.458615
2012-04-05 12:32:05 51°22.726 3°8.195 8.3112 3.258081 30.628904 -2.458615
2012-04-05 12:33:03 51°22.757 3°8.064 8.3182 3.258495 30.635593 -2.458615
2012-04-05 12:34:04 51°22.728 3°7.863 8.3233 3.259737 30.64535 -2.458615
2012-04-05 12:35:03 51°22.667 3°7.664 8.3286 3.260771 30.650571 -2.458615
2012-04-05 12:36:04 51°22.626 3°7.44 8.3304 3.259529 30.633681 -2.458615
2012-04-05 12:37:04 51°22.607 3°7.212 8.335 3.258495 30.620533 -2.458615
2012-04-05 12:38:03 51°22.582 3°6.988 8.3388 3.258495 30.614989 -2.458615
2012-04-05 12:39:03 51°22.567 3°6.757 8.3429 3.258391 30.611537 -2.458615
2012-04-05 12:40:04 51°22.562 3°6.523 8.3412 3.262634 30.652513 -2.458615
2012-04-05 12:41:04 51°22.558 3°6.294 8.3334 3.265221 30.682608 -2.458615
2012-04-05 12:42:04 51°22.559 3°6.063 8.3321 3.265945 30.695705 -2.458615
2012-04-05 12:43:04 51°22.568 3°5.833 8.3333 3.266049 30.697577 -2.458615
2012-04-05 12:44:03 51°22.581 3°5.651 8.335 3.266463 30.700297 -2.458615
2012-04-05 12:45:04 51°22.63 3°5.573 8.34 3.266152 30.690714 -2.458615
2012-04-05 12:46:03 51°22.68 3°5.609 8.341 3.265428 30.681588 -2.458615
2012-04-05 12:47:07 51°22.681 3°5.622 8.3384 3.264082 30.672348 -2.458615
2012-04-05 12:48:06 51°22.679 3°5.629 8.3401 3.263876 30.671781 -2.458615
2012-04-05 12:49:05 51°22.682 3°5.68 8.3451 3.263255 30.665319 -2.458615
2012-04-05 12:50:05 51°22.743 3°5.737 8.337 3.26253 30.659366 -2.458615
2012-04-05 12:51:04 51°22.799 3°5.636 8.3377 3.263255 30.667698 -2.458615
2012-04-05 12:52:04 51°22.833 3°5.427 8.3354 3.263048 30.660785 -2.458615
2012-04-05 12:53:04 51°22.835 3°5.184 8.3425 3.263876 30.672574 -2.458615
2012-04-05 12:54:04 51°22.829 3°4.923 8.3548 3.262634 30.650928 -2.458615
2012-04-05 12:55:03 51°22.83 3°4.662 8.3577 3.261185 30.625559 -2.458615
2012-04-05 12:56:04 51°22.827 3°4.39 8.3714 3.261392 30.624545 -2.458615
2012-04-05 12:57:03 51°22.834 3°4.128 8.3706 3.260046 30.601064 -2.458615
2012-04-05 12:58:04 51°22.85 3°3.855 8.3747 3.259219 30.591668 -2.458615
2012-04-05 12:59:04 51°22.852 3°3.59 8.3784 3.258287 30.579617 -2.458615
2012-04-05 13:00:04 51°22.837 3°3.326 8.3822 3.257666 30.569215 -2.458615
2012-04-05 13:01:04 51°22.842 3°3.058 8.3922 3.256838 30.556665 -2.458615
2012-04-05 13:02:04 51°22.83 3°2.824 8.3952 3.257045 30.551714 -2.458615
2012-04-05 13:03:04 51°22.756 3°2.778 8.4023 3.257149 30.554367 -2.458615
2012-04-05 13:04:04 51°22.688 3°2.751 8.4141 3.257252 30.545977 -2.458615
2012-04-05 13:05:04 51°22.66 3°2.851 8.4206 3.257149 30.540961 -2.458615
2012-04-05 13:06:04 51°22.668 3°2.919 8.4213 3.257252 30.536519 -2.458615
2012-04-05 13:07:07 51°22.671 3°2.928 8.4215 3.257252 30.534155 -2.458615
2012-04-05 13:08:06 51°22.675 3°2.94 8.4219 3.257045 30.532006 -2.458615
2012-04-05 13:09:05 51°22.677 3°2.953 8.429 3.256942 30.530932 -2.458615
2012-04-05 13:10:05 51°22.674 3°2.975 8.4302 3.257769 30.523775 -2.458615
2012-04-05 13:11:04 51°22.67 3°3.001 8.4263 3.257148 30.528354 -2.458615
2012-04-05 13:12:04 51°22.65 3°3.036 8.4283 3.256424 30.522411 -2.458615
2012-04-05 13:13:04 51°22.605 3°2.982 8.4273 3.256114 30.515252 -2.458615
2012-04-05 13:14:04 51°22.502 3°2.798 8.4461 3.255907 30.512317 -2.458615
2012-04-05 13:15:03 51°22.371 3°2.592 8.4769 3.255389 30.486503 -2.458615
2012-04-05 13:16:04 51°22.27 3°2.337 8.5008 3.255182 30.457666 -2.458615
2012-04-05 13:17:04 51°22.185 3°2.073 8.5098 3.25394 30.428347 -2.458615
2012-04-05 13:18:04 51°22.094 3°1.815 8.5169 3.252905 30.410589 -2.458615
2012-04-05 13:19:04 51°21.999 3°1.559 8.5084 3.251249 30.385632 -2.458615
2012-04-05 13:20:03 51°21.907 3°1.308 8.5114 3.247524 30.354109 -2.458615
2012-04-05 13:21:04 51°21.819 3°1.041 8.5262 3.244834 30.322366 -2.458615
2012-04-05 13:22:04 51°21.726 3°0.784 8.5345 3.244523 30.30824 -2.458615
2012-04-05 13:23:04 51°21.63 3°0.53 8.5464 3.244523 30.301228 -2.458615
2012-04-05 13:24:03 51°21.539 3°0.273 8.5555 3.244109 30.287606 -2.458615
2012-04-05 13:25:04 51°21.449 3°0.006 8.5651 3.243385 30.271562 -2.458615
2012-04-05 13:26:04 51°21.355 2°59.748 8.5693 3.243488 30.266412 -2.458615
2012-04-05 13:27:04 51°21.262 2°59.489 8.5715 3.243902 30.267579 -2.458615
2012-04-05 13:28:04 51°21.17 2°59.226 8.5796 3.243591 30.261264 -2.458615
2012-04-05 13:29:04 51°21.076 2°58.966 8.5854 3.243695 30.256895 -2.458615
2012-04-05 13:30:04 51°20.982 2°58.698 8.6018 3.243591 30.25039 -2.458615
2012-04-05 13:31:03 51°20.889 2°58.439 8.6057 3.244419 30.250398 -2.458615
2012-04-05 13:32:04 51°20.792 2°58.175 8.6093 3.243488 30.236905 -2.458615
2012-04-05 13:33:04 51°20.692 2°57.915 8.6157 3.247834 30.278661 -2.458615
2012-04-05 13:34:04 51°20.599 2°57.643 8.6068 3.246592 30.279048 -2.458615
2012-04-05 13:35:04 51°20.487 2°57.395 8.6109 3.245247 30.269818 -2.458615
2012-04-05 13:36:04 51°20.355 2°57.172 8.6072 3.245661 30.270985 -2.458615
2012-04-05 13:37:04 51°20.22 2°56.954 8.5991 3.245764 30.274384 -2.458615
2012-04-05 13:38:04 51°20.09 2°56.732 8.5858 3.245247 30.278367 -2.458615
2012-04-05 13:39:04 51°19.961 2°56.502 8.5638 3.245558 30.297132 -2.458615
2012-04-05 13:40:03 51°19.831 2°56.282 8.5456 3.245351 30.312126 -2.458615
2012-04-05 13:41:04 51°19.706 2°56.043 8.5281 3.245144 30.328699 -2.458615
2012-04-05 13:42:03 51°19.579 2°55.814 8.4995 3.245972 30.350539 -2.458615
2012-04-05 13:43:04 51°19.45 2°55.578 8.5055 3.246386 30.368893 -2.458615
2012-04-05 13:44:04 51°19.324 2°55.343 8.4769 3.247525 30.392424 -2.458615
2012-04-05 13:45:04 51°19.198 2°55.113 8.4508 3.249077 30.423401 -2.458615
2012-04-05 13:46:04 51°19.069 2°54.886 8.4401 3.254458 30.495709 -2.458615
2012-04-05 13:47:04 51°18.939 2°54.65 8.4198 3.255286 30.516107 -2.458615
2012-04-05 13:48:04 51°18.813 2°54.411 8.3749 3.256942 30.553795 -2.458615
2012-04-05 13:49:04 51°18.682 2°54.173 8.374 3.258184 30.587234 -2.458615
2012-04-05 13:50:03 51°18.546 2°53.95 8.3753 3.259115 30.6072 -2.458615
2012-04-05 13:51:04 51°18.391 2°53.758 8.3685 3.25984 30.626611 -2.458615
2012-04-05 13:52:04 51°18.238 2°53.56 8.3534 3.259115 30.620658 -2.458615
2012-04-05 13:53:04 51°18.087 2°53.362 8.3513 3.259529 30.632888 -2.458615
2012-04-05 13:54:04 51°17.931 2°53.165 8.3193 3.260771 30.660886 -2.458615
2012-04-05 13:55:04 51°17.778 2°52.968 8.3115 3.261806 30.679605 -2.458615
2012-04-05 13:56:03 51°17.621 2°52.782 8.2831 3.263255 30.712195 -2.458615
2012-04-05 13:57:04 51°17.451 2°52.609 8.2517 3.270292 30.814305 -2.458615
2012-04-05 13:58:03 51°17.274 2°52.49 8.2409 3.271845 30.84731 -2.458615
2012-04-05 13:59:04 51°17.081 2°52.439 8.2122 3.274639 30.890925 -2.458615
2012-04-05 14:00:04 51°16.89 2°52.498 8.2126 3.275364 30.92098 -2.458615
2012-04-05 14:01:03 51°16.71 2°52.593 8.2566 3.274639 30.907781 -2.458615
2012-04-05 14:02:04 51°16.525 2°52.715 8.3538 3.269568 30.808343 -2.458615
2012-04-05 14:03:04 51°16.351 2°52.873 8.4901 3.260564 30.624643 -2.458615
2012-04-05 14:04:04 51°16.177 2°53.028 8.5823 3.252491 30.421957 -2.458615
2012-04-05 14:05:03 51°16.014 2°53.201 8.6481 3.245868 30.293337 -2.458615
2012-04-05 14:06:04 51°15.849 2°53.388 8.7182 3.24297 30.200577 -2.458615
2012-04-05 14:07:03 51°15.693 2°53.583 8.7819 3.239141 30.110188 -2.458615
2012-04-05 14:08:03 51°15.532 2°53.775 8.8092 3.238002 30.053898 -2.458615
2012-04-05 14:09:03 51°15.37 2°53.964 8.7846 3.238726 30.039866 -2.458615
2012-04-05 14:10:03 51°15.215 2°54.162 8.7811 3.242451 30.098086 -2.458615
2012-04-05 14:11:03 51°15.056 2°54.352 8.8391 3.2439 30.120665 -2.458615
2012-04-05 14:12:04 51°14.902 2°54.554 8.8777 3.243072 30.062256 -2.458615
2012-04-05 14:13:05 51°14.746 2°54.755 9.0931 3.240277 29.980858 -2.458615
2012-04-05 14:14:04 51°14.587 2°54.938 9.2428 3.241208 29.987346 -2.458615
2012-04-05 14:15:07 51°14.42 2°55.128 9.3369 3.241415 29.98794 -2.458615
2012-04-05 14:16:07 51°14.272 2°55.282 9.4017 3.241933 29.991713 -2.458615
2012-04-05 14:17:08 51°14.133 2°55.396 9.4093 3.24214 29.993833 -2.458615
2012-04-05 14:18:07 51°14.016 2°55.481 9.5308 3.242554 29.99502 -2.458615
2012-04-05 14:19:07 51°13.907 2°55.562 9.6282 3.243381 29.990532 -2.458615
2012-04-05 14:20:08 51°13.818 2°55.637 9.688 3.244726 29.991343 -2.458615
2012-04-05 14:21:07 51°13.755 2°55.719 9.8181 3.246485 29.990296 -2.458615
2012-04-05 14:22:07 51°13.703 2°55.815 9.9005 3.248554 29.994709 -2.458615
2012-04-05 14:23:07 51°13.661 2°55.908 10.0069 3.250624 29.99836 -2.458615
2012-04-05 14:24:07 51°13.641 2°55.993 10.0993 3.252796 30.003827 -2.458615
2012-04-05 14:25:07 51°13.633 2°56.015 10.213 3.255073 30.008827 -2.458615